#datint,netname,site,siteID,timestamp,IntT,BattV,AirT2,AirT,AirT_Avg,AirT_Max,AirT_Min,RH_Avg,RH_Max,RH_Min,EA_Avg,Td_Avg,Td_Max,Td_Min,WindS_Smp,WindS_Avg,WindD_Avg,WindD_SD,WindS_Max,ETo,ETr,SoilT4,SoilT8,SoilVWC8,SolarW_Avg,wetstate_Avg,wetT_Avg,Precip_accum,Precip_WPG,Precip_TB
15min,AgWx,beryljct,423,04JUN2020:00:00:00,65.9,12.92,63.2,60.2,61.8,66.7,57.6,44,53,34,0.743,39.3,42.1,36.9,1.447,2.2,151,83,5.9,-0.00002,0.00002,63.1,61.8,14,0,.,.,13.50,0.00,0.00
15min,AgWx,beryljct,423,04JUN2020:00:15:00,64.6,12.92,59.0,58.6,62.9,67.7,58.6,38,47,28,0.792,36.4,38.7,33.5,7.453,3.9,110,75,7.5,0.00021,0.00035,63.0,61.9,14,0,.,.,13.50,0.00,0.00
15min,AgWx,beryljct,423,04JUN2020:00:30:00,63.2,12.91,56.4,55.8,58.2,61.0,55.1,49,60,40,0.872,38.8,41.4,36.0,4.165,5.8,131,8.3,8.4,0.00028,0.00040,62.9,61.9,14,0,.,.,13.50,0.00,0.00
15min,AgWx,beryljct,423,04JUN2020:00:45:00,61.7,12.89,62.6,62.0,59.1,62.2,55.9,44,57,33,0.641,37.3,41.0,32.9,5.086,4.6,171,14,6.3,0.00022,0.00034,62.7,61.9,14,0,.,.,13.50,0.00,0.00
15min,AgWx,beryljct,423,04JUN2020:01:00:00,61.0,12.88,59.6,59.9,60.3,62.2,58.6,38,43,33,0.690,34.8,36.2,32.8,3.573,4.3,182,5.4,6.1,0.00025,0.00038,62.6,61.8,14,0,.,.,13.50,0.00,0.00
15min,AgWx,beryljct,423,04JUN2020:01:15:00,60.4,12.89,55.3,57.9,59.3,61.9,56.7,42,50,35,0.784,36.1,38.9,34.0,0,3.4,179,8.4,5.2,0.00013,0.00022,62.5,61.8,14,0,.,.,13.50,0.00,0.00
15min,AgWx,beryljct,423,04JUN2020:01:30:00,59.6,12.87,52.4,51.2,54.7,58.7,51.1,57,63,45,0.796,39.6,41.0,37.3,4.231,3.1,325,18,4.8,0.00001,0.00005,62.3,61.8,14,0,.,.,13.50,0.00,0.00
15min,AgWx,beryljct,423,04JUN2020:01:45:00,58.1,12.86,49.7,49.8,51.8,54.2,49.4,61,71,50,0.863,38.5,40.7,36.0,3.595,2.2,187,92,5.8,-0.00009,-0.00009,62.2,61.8,14,0,.,.,13.51,0.00,0.00
15min,AgWx,beryljct,423,04JUN2020:02:00:00,56.7,12.85,51.5,51.1,50.5,51.4,49.5,67,72,62,0.794,39.9,41.1,38.5,3.99,3.8,185,31,5.4,-0.00000,0.00002,62.1,61.8,14,0,.,.,13.51,0.00,0.00
15min,AgWx,beryljct,423,04JUN2020:02:15:00,55.5,12.84,50.0,50.2,51.1,51.7,50.2,64,70,59,0.868,39.1,40.9,37.6,2.148,2.9,200,5.2,4.1,-0.00004,-0.00002,61.9,61.8,14,0,.,.,13.51,0.00,0.00
15min,AgWx,beryljct,423,04JUN2020:02:30:00,54.9,12.84,51.3,51.1,53.2,55.8,50.1,52,70,43,0.735,35.7,40.9,33.3,0.855,2.6,177,14,3.7,-0.00002,0.00001,61.8,61.8,14,0,.,.,13.51,0.00,0.00
15min,AgWx,beryljct,423,04JUN2020:02:45:00,54.4,12.81,49.5,49.5,50.0,51.7,48.4,63,71,55,0.830,38.0,39.8,35.3,0.263,1.8,194,18,3.6,-0.00013,-0.00016,61.6,61.8,14,0,.,.,13.51,0.00,0.00
15min,AgWx,beryljct,423,04JUN2020:03:00:00,53.6,12.81,47.8,47.7,49.6,50.7,47.7,66,73,60,0.828,38.7,39.8,36.8,0,0.6,150,78,3.1,-0.00025,-0.00037,61.5,61.7,13,0,.,.,13.51,0.00,0.00
15min,AgWx,beryljct,423,04JUN2020:03:15:00,52.9,12.81,48.2,47.6,48.6,50.1,47.6,66,73,56,0.813,37.9,39.7,35.2,0.088,1.1,214,39,2.8,-0.00020,-0.00028,61.3,61.7,14,0,.,.,13.51,0.01,0.00
15min,AgWx,beryljct,423,04JUN2020:03:30:00,52.2,12.81,48.2,48.8,49.7,51.0,47.7,62,72,53,0.812,37.2,39.2,34.4,0,0.0,205,0.0,0.1,-0.00034,-0.00054,61.2,61.7,14,0,.,.,13.51,0.00,0.00
15min,AgWx,beryljct,423,04JUN2020:03:45:00,51.7,12.8,47.9,47.3,49.1,50.5,46.8,66,75,56,0.777,37.9,39.7,35.3,1.556,0.6,277,29,1.9,-0.00025,-0.00037,61.0,61.6,14,0,.,.,13.51,0.00,0.00
15min,AgWx,beryljct,423,04JUN2020:04:00:00,51.1,12.79,46.8,46.8,47.1,49.3,45.7,68,72,63,0.743,37.2,38.6,36.0,0,1.5,331,12,3.9,-0.00016,-0.00021,60.8,61.6,14,0,.,.,13.52,0.00,0.00
15min,AgWx,beryljct,423,04JUN2020:04:15:00,50.5,12.77,46.8,46.1,46.6,48.1,45.1,71,79,62,0.776,37.8,39.2,35.5,0,1.1,78,12,2.8,-0.00020,-0.00028,60.7,61.6,14,0,.,.,13.51,0.00,0.00
15min,AgWx,beryljct,423,04JUN2020:04:30:00,49.9,12.78,47.9,48.8,47.7,49.0,46.0,65,75,57,0.677,36.3,38.6,34.2,3.573,1.7,42,63,3.7,-0.00014,-0.00018,60.5,61.5,14,0,.,.,13.52,0.00,0.00
15min,AgWx,beryljct,423,04JUN2020:04:45:00,49.5,12.77,50.1,49.4,47.8,49.4,46.4,62,71,52,0.624,35.2,37.5,32.5,1.118,1.0,290,1.3,3.5,-0.00020,-0.00028,60.3,61.5,14,0,.,.,13.52,0.00,0.00
15min,AgWx,beryljct,423,04JUN2020:05:00:00,49.2,12.77,48.0,47.3,46.9,49.7,44.6,65,79,50,0.658,35.6,38.6,32.1,2.105,0.9,241,45,3.1,-0.00022,-0.00030,60.2,61.4,13,0,.,.,13.52,0.00,0.00
15min,AgWx,beryljct,423,04JUN2020:05:15:00,48.8,12.76,44.7,44.3,45.3,48.1,44.0,72,80,58,0.745,36.7,38.2,34.1,4.034,2.5,160,11,4.3,-0.00010,-0.00011,60.0,61.4,14,0,.,.,13.52,0.00,0.00
15min,AgWx,beryljct,423,04JUN2020:05:30:00,48.3,12.76,48.3,47.3,45.3,47.3,44.3,63,75,55,0.608,33.4,36.9,31.4,4.034,3.8,181,4.5,4.8,0.00030,0.00052,59.8,61.3,14,0,.,.,13.52,0.00,0.00
15min,AgWx,beryljct,423,04JUN2020:05:45:00,48.1,12.75,45.5,45.4,46.7,48.0,45.3,60,69,53,0.701,33.5,35.9,31.7,1.688,3.9,188,9.6,4.8,0.00034,0.00060,59.7,61.3,14,0,.,.,13.52,0.00,0.00
15min,AgWx,beryljct,423,04JUN2020:06:00:00,47.9,12.75,46.2,46.1,45.9,46.6,44.9,66,70,63,0.672,35.0,35.8,34.3,1.14,1.9,193,0.6,2.9,0.00016,0.00028,59.5,61.2,14,0,.,.,13.52,0.00,0.00
15min,AgWx,beryljct,423,04JUN2020:06:15:00,47.7,12.75,47.9,48.1,47.0,48.3,45.4,64,71,59,0.710,35.4,36.5,34.0,2.784,1.9,193,0.9,2.8,0.00018,0.00030,59.4,61.2,14,3,.,.,13.52,0.00,0.00
15min,AgWx,beryljct,423,04JUN2020:06:30:00,47.9,12.76,48.2,47.1,47.4,48.1,46.6,66,69,63,0.741,36.6,37.2,36.0,0,2.2,194,0.9,3.3,0.00027,0.00041,59.2,61.1,13,18,.,.,13.52,0.00,0.00
15min,AgWx,beryljct,423,04JUN2020:06:45:00,48.5,12.77,48.7,48.7,48.7,49.6,47.3,63,69,58,0.797,36.5,38.7,35.1,2.258,1.3,193,0.9,2.5,0.00039,0.00049,59.1,61.0,14,48,.,.,13.51,0.00,0.00
15min,AgWx,beryljct,423,04JUN2020:07:00:00,49.6,12.77,48.5,48.8,49.8,51.2,48.5,63,69,55,0.812,37.6,39.2,35.3,3.727,2.3,181,24,4.0,0.00061,0.00079,58.9,61.0,13,84,.,.,13.51,0.00,0.00
15min,AgWx,beryljct,423,04JUN2020:07:15:00,51.0,12.76,49.6,49.4,48.2,49.4,47.4,70,76,63,0.765,38.8,40.9,36.8,2.017,3.1,133,49,4.9,0.00075,0.00094,58.8,60.9,14,123,.,.,13.51,0.00,0.00
15min,AgWx,beryljct,423,04JUN2020:07:30:00,52.5,12.76,51.4,50.8,49.9,50.8,49.0,64,72,55,0.694,38.1,40.8,34.9,3.003,2.6,351,32,4.8,0.00096,0.00117,58.6,60.9,14,163,.,.,13.51,0.00,0.00
15min,AgWx,beryljct,423,04JUN2020:07:45:00,54.2,12.78,52.8,52.3,51.7,52.3,50.9,56,63,52,0.820,36.6,39.9,34.6,3.288,2.7,13,17,3.6,0.00125,0.00153,58.5,60.8,14,209,.,.,13.51,0.00,0.00
15min,AgWx,beryljct,423,04JUN2020:08:00:00,56.3,12.79,56.5,56.1,54.2,56.1,52.4,60,64,56,0.911,40.8,43.3,38.1,2.346,2.3,32,4.2,3.5,0.00148,0.00174,58.4,60.8,14,257,.,.,13.50,0.00,0.00
15min,AgWx,beryljct,423,04JUN2020:08:15:00,59.0,12.79,59.7,59.4,58.0,59.4,56.1,52,60,45,0.853,40.5,44.2,36.9,2.762,2.1,25,5.2,2.8,0.00185,0.00216,58.3,60.7,14,306,.,.,13.50,0.00,0.00
15min,AgWx,beryljct,423,04JUN2020:08:30:00,61.8,12.8,62.5,62.0,60.6,62.0,59.5,48,53,42,0.872,40.6,43.6,37.6,2.324,2.7,16,13,3.7,0.00227,0.00270,58.3,60.6,14,357,.,.,13.50,0.00,0.00
15min,AgWx,beryljct,423,04JUN2020:08:45:00,64.7,12.86,64.0,63.6,62.9,64.2,61.8,42,51,37,1.013,39.6,45.2,36.6,0,1.1,347,5.8,2.6,0.00249,0.00279,58.2,60.6,14,406,.,.,13.50,0.00,0.00
15min,AgWx,beryljct,423,04JUN2020:09:00:00,67.8,12.96,66.9,67.5,65.3,67.6,63.5,44,54,39,0.917,42.7,46.6,40.4,2.499,1.4,358,10,2.7,0.00289,0.00324,58.2,60.5,13,456,.,.,13.49,0.00,0.00
15min,AgWx,beryljct,423,04JUN2020:09:15:00,70.7,13.08,69.1,69.7,68.4,69.9,67.0,38,44,33,0.873,41.8,45.1,38.9,2.477,2.6,349,9.2,3.4,0.00344,0.00401,58.2,60.4,14,506,.,.,13.49,0.00,0.00
15min,AgWx,beryljct,423,04JUN2020:09:30:00,73.3,13.27,71.9,71.3,70.6,71.4,69.4,34,40,31,0.843,41.0,45.4,38.2,2.368,2.5,349,15,3.5,0.00385,0.00447,58.2,60.4,14,556,.,.,13.48,0.00,0.00
15min,AgWx,beryljct,423,04JUN2020:09:45:00,75.7,13.52,72.4,72.6,71.8,72.8,71.1,34,42,29,0.798,42.0,47.4,38.5,0.965,2.1,19,13,3.7,0.00415,0.00474,58.3,60.3,13,603,.,.,13.48,0.00,0.00
15min,AgWx,beryljct,423,04JUN2020:10:00:00,78.1,13.66,73.7,74.3,72.9,74.5,72.3,39,49,29,0.982,46.2,52.3,38.7,0,0.6,55,6.8,2.1,0.00434,0.00472,58.4,60.3,13,649,.,.,13.48,0.00,0.00
15min,AgWx,beryljct,423,04JUN2020:10:15:00,80.6,13.82,74.4,74.7,74.2,75.0,73.6,38,46,33,1.006,47.1,52.1,42.9,2.324,0.7,65,9.3,2.9,0.00466,0.00508,58.5,60.2,13,687,.,.,13.48,0.00,0.00
15min,AgWx,beryljct,423,04JUN2020:10:30:00,82.6,13.94,76.8,76.8,75.8,76.8,74.6,41,50,32,1.244,50.6,55.8,44.5,1.6,1.1,86,6.6,2.3,0.00512,0.00561,58.6,60.2,13,738,.,.,13.47,0.00,0.00
15min,AgWx,beryljct,423,04JUN2020:10:45:00,84.3,13.84,78.3,78.6,77.9,78.7,76.8,38,45,29,1.394,50.0,54.3,42.6,2.389,1.5,89,13,3.0,0.00549,0.00608,58.8,60.1,13,772,.,.,13.47,0.00,0.00
15min,AgWx,beryljct,423,04JUN2020:11:00:00,85.8,13.9,79.9,80.1,79.2,80.1,78.5,37,49,28,1.311,50.3,58.4,43.4,2.148,2.0,99,12,3.7,0.00585,0.00654,59.0,60.1,13,808,.,.,13.47,0.00,0.00
15min,AgWx,beryljct,423,04JUN2020:11:15:00,87.0,13.87,81.6,81.7,81.0,81.8,80.1,37,48,24,1.323,52.2,59.9,41.0,4.187,3.2,104,22,5.2,0.00631,0.00721,59.2,60.1,13,844,.,.,13.47,0.00,0.00
15min,AgWx,beryljct,423,04JUN2020:11:30:00,88.1,13.84,81.3,82.2,82.4,83.2,81.6,36,47,24,1.384,52.5,59.4,42.3,4.187,3.1,88,37,6.1,0.00653,0.00745,59.4,60.0,13,867,.,.,13.47,0.00,0.00
15min,AgWx,beryljct,423,04JUN2020:11:45:00,89.2,13.79,82.3,83.2,83.4,85.4,82.1,30,44,22,0.857,48.6,58.9,40.6,8.05,6.8,149,44,15.2,0.00756,0.00914,59.7,60.0,13,951,.,.,13.47,0.00,0.00
15min,AgWx,beryljct,423,04JUN2020:12:00:00,89.5,13.86,84.1,84.3,84.1,85.7,82.5,26,32,20,1.051,45.1,50.5,39.5,8.81,9.6,182,27,22.6,0.00854,0.01068,60.0,60.0,13,1034,.,.,13.47,0.00,0.00
15min,AgWx,beryljct,423,04JUN2020:12:15:00,89.4,13.86,85.7,85.9,84.6,86.1,82.3,24,33,19,1.053,43.7,52.2,38.3,6.883,10.3,209,30,16.4,0.00793,0.01019,60.3,60.0,13,899,.,.,13.47,0.00,0.00
15min,AgWx,beryljct,423,04JUN2020:12:30:00,89.1,13.78,85.3,83.4,84.3,86.5,80.0,23,30,18,0.894,41.8,47.8,34.3,11.77,9.1,170,25,14.4,0.00667,0.00870,60.6,60.0,13,710,.,.,13.47,0.00,0.00
15min,AgWx,beryljct,423,04JUN2020:12:45:00,88.6,13.7,83.7,85.1,85.3,86.3,83.7,22,26,17,0.864,41.5,47.5,35.4,7.41,10.6,198,15,16.8,0.00882,0.01125,61.0,60.0,13,1022,.,.,13.47,0.00,0.00
15min,AgWx,beryljct,423,04JUN2020:13:00:00,88.8,13.38,85.3,85.8,85.9,87.0,84.5,21,25,16,0.807,40.9,45.8,35.7,13.31,11.7,191,15,20.1,0.00876,0.01136,61.3,60.0,13,994,.,.,13.47,0.00,0.00
15min,AgWx,beryljct,423,04JUN2020:13:15:00,89.2,13.4,86.4,86.5,85.6,87.0,83.9,23,30,18,1.030,43.7,50.3,38.0,11.2,8.8,194,35,17.7,0.00858,0.01070,61.7,60.0,13,1028,.,.,13.47,0.00,0.00
15min,AgWx,beryljct,423,04JUN2020:13:30:00,89.6,13.35,86.6,86.1,86.0,87.1,85.1,21,28,14,0.800,41.5,49.3,31.7,0.373,8.2,201,40,18.6,0.00868,0.01078,62.0,60.0,13,1041,.,.,13.47,0.01,0.00
15min,AgWx,beryljct,423,04JUN2020:13:45:00,90.4,13.33,86.3,86.7,86.3,88.2,84.6,21,27,17,0.780,42.2,48.8,36.6,14.75,9.5,183,29,19.6,0.00880,0.01105,62.4,60.1,13,1038,.,.,13.47,0.00,0.00
15min,AgWx,beryljct,423,04JUN2020:14:00:00,90.6,13.36,83.8,86.0,86.1,87.3,84.1,22,29,17,0.996,42.6,48.4,37.0,8.7,11.0,193,21,16.0,0.00896,0.01146,62.8,60.1,13,1034,.,.,13.47,0.00,0.00
15min,AgWx,beryljct,423,04JUN2020:14:15:00,90.7,13.35,86.8,86.3,86.6,87.8,85.1,21,30,18,0.894,42.0,50.3,37.7,12.65,12.0,195,17,19.2,0.00907,0.01173,63.2,60.2,13,1024,.,.,13.47,0.00,0.00
15min,AgWx,beryljct,423,04JUN2020:14:30:00,90.7,13.36,83.6,85.1,86.3,87.5,85.1,22,27,18,0.795,42.4,49.2,38.3,13.46,10.6,198,18,19.7,0.00780,0.01018,63.6,60.2,13,848,.,.,13.47,0.01,0.00
15min,AgWx,beryljct,423,04JUN2020:14:45:00,90.2,13.33,86.4,87.2,86.4,87.4,84.6,20,25,17,1.115,40.5,47.5,36.4,7.519,13.3,183,16,21.2,0.00887,0.01175,64.0,60.3,13,978,.,.,13.47,0.00,0.00
15min,AgWx,beryljct,423,04JUN2020:15:00:00,90.0,13.32,86.8,86.7,86.4,87.5,85.6,22,25,18,0.863,42.8,47.2,38.1,11.44,11.1,208,17,18.4,0.00860,0.01109,64.4,60.4,13,976,.,.,13.47,0.00,0.00
15min,AgWx,beryljct,423,04JUN2020:15:15:00,89.8,13.32,88.0,86.3,86.2,87.5,84.8,21,27,18,0.833,42.0,47.1,38.4,8.2,11.0,193,21,19.8,0.00839,0.01087,64.7,60.4,13,945,.,.,13.47,0.00,0.00
15min,AgWx,beryljct,423,04JUN2020:15:30:00,90.1,13.31,87.0,87.0,86.7,88.0,85.6,21,25,18,1.015,42.3,46.8,37.9,7.695,11.1,194,19,32.3,0.00824,0.01074,65.0,60.5,13,918,.,.,13.47,0.00,0.00
15min,AgWx,beryljct,423,04JUN2020:15:45:00,90.5,13.29,86.3,85.8,86.4,87.6,85.3,21,29,18,0.893,42.3,49.9,36.9,7.41,9.8,195,22,16.3,0.00788,0.01015,65.2,60.6,13,894,.,.,13.47,0.00,0.00
15min,AgWx,beryljct,423,04JUN2020:16:00:00,90.8,13.31,85.4,87.1,86.5,87.3,85.6,21,27,18,0.930,42.5,48.4,37.5,14.12,10.9,197,16,18.5,0.00781,0.01023,65.5,60.7,13,864,.,.,13.47,0.00,0.00
15min,AgWx,beryljct,423,04JUN2020:16:15:00,91.1,13.3,84.1,85.6,86.5,87.6,84.8,20,25,16,1.052,40.8,45.9,35.3,7.344,11.3,190,20,16.4,0.00771,0.01024,65.7,60.7,13,832,.,.,13.47,0.00,0.00
15min,AgWx,beryljct,423,04JUN2020:16:30:00,91.4,13.31,84.8,85.4,86.2,87.3,84.8,22,28,16,0.958,43.0,48.8,35.2,13.81,8.5,200,53,18.1,0.00689,0.00888,66.0,60.8,13,786,.,.,13.47,0.00,0.00
15min,AgWx,beryljct,423,04JUN2020:16:45:00,91.4,13.28,86.4,87.1,86.3,87.6,84.8,20,24,17,0.764,40.9,45.0,37.5,11.36,11.6,193,19,21.3,0.00716,0.00968,66.2,60.9,13,749,.,.,13.47,0.00,0.00
15min,AgWx,beryljct,423,04JUN2020:17:00:00,91.4,13.33,85.2,85.6,85.9,87.1,84.6,21,28,18,0.863,41.9,47.7,37.6,14.03,9.8,185,25,16.4,0.00661,0.00879,66.3,61.0,13,716,.,.,13.48,0.01,0.00
15min,AgWx,beryljct,423,04JUN2020:17:15:00,91.2,13.29,83.6,83.8,85.4,87.0,83.1,22,31,15,1.030,42.0,49.1,34.3,7.958,9.0,182,24,16.1,0.00614,0.00816,66.5,61.1,13,671,.,.,13.47,0.00,0.00
15min,AgWx,beryljct,423,04JUN2020:17:30:00,90.8,13.34,85.8,85.6,85.3,86.1,83.7,21,27,17,0.797,40.7,46.6,36.6,9.34,10.6,206,13,17.2,0.00600,0.00826,66.6,61.2,13,614,.,.,13.47,0.00,0.00
15min,AgWx,beryljct,423,04JUN2020:17:45:00,90.3,13.29,86.1,84.9,84.9,85.9,83.7,22,28,19,1.043,42.2,47.1,38.2,9.08,8.6,204,31,14.6,0.00541,0.00731,66.7,61.3,13,581,.,.,13.47,0.00,0.00
15min,AgWx,beryljct,423,04JUN2020:18:00:00,90.1,13.3,84.6,84.6,85.8,86.9,84.6,20,23,18,0.883,39.5,43.7,36.9,12.32,11.9,200,17,16.9,0.00575,0.00823,66.8,61.4,13,534,.,.,13.47,0.00,0.00
15min,AgWx,beryljct,423,04JUN2020:18:15:00,89.9,13.29,86.3,86.3,85.4,86.8,84.3,20,26,14,0.763,39.4,45.5,31.8,9.32,8.1,193,26,15.0,0.00471,0.00655,66.9,61.5,13,486,.,.,13.47,0.00,0.00
15min,AgWx,beryljct,423,04JUN2020:18:30:00,89.6,13.3,86.2,85.2,85.1,86.3,83.6,19,22,16,0.691,38.2,41.0,34.3,12.28,10.2,183,19,16.6,0.00475,0.00691,66.9,61.6,12,437,.,.,13.47,0.00,0.00
15min,AgWx,beryljct,423,04JUN2020:18:45:00,89.1,13.2,85.3,85.2,84.9,85.6,84.2,18,21,16,0.655,36.3,39.8,33.5,13.02,11.4,201,11,18.6,0.00467,0.00704,67.0,61.7,12,388,.,.,13.47,0.00,0.00
15min,AgWx,beryljct,423,04JUN2020:19:00:00,88.6,13.11,85.0,85.2,85.1,85.6,84.4,16,19,14,0.603,34.4,37.9,31.4,11.09,11.9,189,13,15.7,0.00447,0.00694,67.0,61.8,13,335,.,.,13.47,0.00,0.00
15min,AgWx,beryljct,423,04JUN2020:19:15:00,88.0,13.11,84.8,84.3,84.2,85.6,83.2,17,21,15,0.655,35.4,39.5,31.8,11.4,9.1,194,14,14.6,0.00349,0.00542,66.9,61.9,12,285,.,.,13.47,0.00,0.00
15min,AgWx,beryljct,423,04JUN2020:19:30:00,87.5,13.07,84.4,84.3,84.4,85.3,83.8,15,18,14,0.593,32.4,36.4,30.1,11.53,11.8,188,8.8,15.3,0.00376,0.00617,66.9,62.0,12,235,.,.,13.47,0.00,0.00
15min,AgWx,beryljct,423,04JUN2020:19:45:00,86.8,13.05,83.5,83.3,84.0,84.6,82.8,15,18,14,0.621,31.7,34.7,29.9,9.62,10.3,185,9.2,16.4,0.00312,0.00527,66.8,62.1,12,187,.,.,13.47,0.00,0.00
15min,AgWx,beryljct,423,04JUN2020:20:00:00,86.0,13.04,80.0,80.8,82.4,83.5,80.8,17,20,16,0.729,33.6,36.4,31.8,4.779,7.5,196,9.8,11.2,0.00148,0.00204,66.8,62.2,12,136,.,.,13.47,0.00,0.00
15min,AgWx,beryljct,423,04JUN2020:20:15:00,84.8,13.05,81.8,81.5,81.4,81.9,80.4,18,21,16,0.619,33.5,37.0,31.9,9.67,8.0,192,8.8,11.5,0.00139,0.00191,66.7,62.2,12,99,.,.,13.48,0.01,0.00
15min,AgWx,beryljct,423,04JUN2020:20:30:00,83.5,13.04,79.3,79.7,80.6,81.5,79.5,18,20,17,0.656,33.6,34.9,32.4,5.612,7.4,186,6.9,11.2,0.00121,0.00169,66.6,62.3,12,61,.,.,13.48,0.00,0.00
15min,AgWx,beryljct,423,04JUN2020:20:45:00,81.6,13.02,73.4,75.0,78.1,79.6,75.0,21,27,19,0.786,34.7,38.4,33.2,2.609,4.9,170,5.6,6.6,0.00066,0.00099,66.5,62.4,12,20,.,.,13.48,0.00,0.00
15min,AgWx,beryljct,423,04JUN2020:21:00:00,78.6,13,72.2,71.3,72.2,74.8,68.5,29,39,25,0.720,38.4,43.2,35.7,3.223,3.6,174,11,4.8,0.00029,0.00048,66.4,62.4,12,5,.,.,13.48,0.01,0.00
15min,AgWx,beryljct,423,04JUN2020:21:15:00,75.7,13,75.0,74.4,71.9,74.4,70.0,26,31,20,0.594,34.7,38.0,31.3,4.647,2.9,184,7.5,4.6,0.00018,0.00032,66.3,62.5,12,1,.,.,13.49,0.00,0.00
15min,AgWx,beryljct,423,04JUN2020:21:30:00,74.0,13,67.2,67.4,73.8,75.5,67.4,23,38,19,0.852,32.9,41.4,30.6,3.486,3.9,168,5.5,4.9,0.00039,0.00063,66.2,62.6,12,0,.,.,13.49,0.00,0.00
15min,AgWx,beryljct,423,04JUN2020:21:45:00,71.9,12.98,64.9,65.0,66.6,68.4,64.4,36,43,30,0.865,38.7,42.8,35.2,2.565,3.5,158,6.2,4.6,0.00020,0.00033,66.0,62.6,12,0,.,.,13.49,0.00,0.00
15min,AgWx,beryljct,423,04JUN2020:22:00:00,69.3,12.98,58.7,59.9,63.2,68.5,59.6,42,53,28,0.932,39.5,42.9,33.5,3.244,5.1,167,24,7.6,0.00032,0.00047,65.9,62.7,12,0,.,.,13.49,0.00,0.00
15min,AgWx,beryljct,423,04JUN2020:22:15:00,67.3,12.97,65.5,70.8,63.5,70.9,59.3,38,53,22,0.593,35.9,42.6,30.0,3.924,3.9,184,21,5.0,0.00024,0.00038,65.7,62.7,12,0,.,.,13.49,0.00,0.00
15min,AgWx,beryljct,423,04JUN2020:22:30:00,66.4,12.96,63.1,63.3,66.6,70.4,62.9,30,38,22,0.663,33.6,38.2,29.6,4.713,4.4,180,6.0,5.7,0.00036,0.00055,65.5,62.7,12,0,.,.,13.50,0.01,0.00
15min,AgWx,beryljct,423,04JUN2020:22:45:00,65.4,12.96,66.2,64.2,62.6,64.5,61.0,36,43,29,0.592,34.9,38.4,31.2,5.7,4.5,184,4.3,5.7,0.00030,0.00046,65.3,62.8,12,0,.,.,13.50,0.00,0.00
15min,AgWx,beryljct,423,04JUN2020:23:00:00,64.6,12.94,63.9,67.4,65.1,67.6,62.9,29,35,25,0.603,32.3,35.6,30.0,3.508,4.1,178,7.8,6.4,0.00031,0.00048,65.1,62.8,12,0,.,.,13.50,0.00,0.00
15min,AgWx,beryljct,423,04JUN2020:23:15:00,64.4,12.94,59.7,59.4,65.2,68.3,59.3,32,48,25,0.818,34.1,39.5,31.1,7.037,4.8,161,15,7.2,0.00038,0.00057,64.9,62.8,12,0,.,.,13.50,0.00,0.00
15min,AgWx,beryljct,423,04JUN2020:23:30:00,63.3,12.92,55.4,55.7,57.7,59.6,55.7,53,59,47,0.892,40.7,41.7,39.1,6.489,6.2,144,4.0,7.3,0.00026,0.00037,64.7,62.8,12,0,.,.,13.50,0.00,0.00
15min,AgWx,beryljct,423,04JUN2020:23:45:00,62.0,12.93,60.8,60.9,58.0,60.9,55.0,51,61,41,0.752,39.8,41.9,36.7,4.472,5.7,173,20,8.0,0.00025,0.00036,64.5,62.8,12,0,.,.,13.50,0.00,0.00
15min,AgWx,bigpiney,439,04JUN2020:00:00:00,53.3,12.72,50.3,50.2,50.9,51.4,50.2,66,68,65,0.841,40.0,40.2,39.8,6.862,7.5,244,7.6,9.0,0.00027,0.00034,51.9,48.3,55,0,0,0.0,6.74,0.00,0.00
15min,AgWx,bigpiney,439,04JUN2020:00:15:00,53.2,12.72,49.3,49.3,49.5,50.3,48.7,70,72,68,0.836,40.0,40.3,39.7,7.519,7.4,234,9.9,9.6,0.00023,0.00029,51.8,48.3,55,0,0,0.0,6.74,0.00,0.00
15min,AgWx,bigpiney,439,04JUN2020:00:30:00,53.0,12.71,51.0,51.0,50.0,51.1,49.2,68,70,65,0.833,39.9,40.2,39.8,5.897,6.5,248,11,7.8,0.00022,0.00029,51.8,48.3,55,0,0,0.0,6.74,0.00,0.00
15min,AgWx,bigpiney,439,04JUN2020:00:45:00,52.9,12.7,49.6,49.9,50.6,51.0,49.9,66,68,65,0.829,39.7,39.9,39.5,2.083,5.1,254,9.5,6.6,0.00020,0.00028,51.7,48.3,55,0,0,0.0,6.74,0.00,0.00
15min,AgWx,bigpiney,439,04JUN2020:01:00:00,52.7,12.7,46.7,47.6,49.2,53.0,47.5,69,74,59,0.823,39.4,40.1,38.8,2.565,3.7,86,35,7.8,0.00013,0.00019,51.7,48.3,55,0,0,0.0,6.74,0.00,0.00
15min,AgWx,bigpiney,439,04JUN2020:01:15:00,52.2,12.69,46.6,47.2,46.8,47.5,46.0,76,78,72,0.800,39.5,40.0,38.8,1.206,1.7,124,28,2.5,0.00002,0.00003,51.6,48.4,55,0,0,0.0,6.74,0.00,0.00
15min,AgWx,bigpiney,439,04JUN2020:01:30:00,51.5,12.68,48.9,48.4,47.6,48.4,46.6,72,75,70,0.805,39.1,39.4,38.8,4.45,2.2,179,6.3,4.5,0.00005,0.00008,51.6,48.3,55,0,0,0.0,6.74,0.00,0.00
15min,AgWx,bigpiney,439,04JUN2020:01:45:00,50.6,12.66,44.7,45.0,45.7,48.7,44.3,77,82,68,0.803,38.7,39.6,38.0,2.017,3.4,197,12,4.9,0.00007,0.00011,51.5,48.4,55,0,0,0.0,6.74,0.00,0.00
15min,AgWx,bigpiney,439,04JUN2020:02:00:00,49.7,12.67,49.5,48.2,45.7,48.3,44.9,76,79,69,0.793,38.5,39.0,37.9,3.025,2.2,240,46,3.5,0.00004,0.00006,51.5,48.3,55,0,0,0.0,6.74,0.00,0.00
15min,AgWx,bigpiney,439,04JUN2020:02:15:00,49.3,12.66,45.2,47.6,49.6,50.7,47.6,65,69,63,0.769,38.3,38.6,37.8,3.003,3.1,293,50,6.6,0.00013,0.00019,51.4,48.3,55,0,0,0.0,6.74,0.00,0.00
15min,AgWx,bigpiney,439,04JUN2020:02:30:00,49.1,12.64,48.6,49.2,47.7,49.6,45.9,70,75,64,0.768,38.2,38.7,37.8,1.315,1.4,86,45,3.6,0.00002,0.00004,51.4,48.3,55,0,0,0.0,6.74,0.00,0.00
15min,AgWx,bigpiney,439,04JUN2020:02:45:00,49.1,12.64,46.8,46.7,47.6,49.2,46.6,69,73,65,0.788,38.1,38.4,37.7,1.469,0.8,152,45,2.9,-0.00002,-0.00002,51.3,48.3,55,0,0,0.0,6.74,0.00,0.00
15min,AgWx,bigpiney,439,04JUN2020:03:00:00,48.8,12.63,44.7,44.2,44.9,47.3,43.2,77,82,70,0.786,38.0,38.7,36.9,1.118,2.8,112,34,5.2,0.00005,0.00008,51.3,48.3,55,0,0,0.0,6.74,0.00,0.00
15min,AgWx,bigpiney,439,04JUN2020:03:15:00,48.3,12.63,44.8,44.2,43.8,45.7,42.2,80,84,75,0.786,37.9,38.7,37.3,1.096,1.5,320,57,4.3,-0.00000,0.00001,51.2,48.3,55,0,0,0.0,6.74,0.00,0.00
15min,AgWx,bigpiney,439,04JUN2020:03:30:00,47.6,12.61,41.4,41.3,42.4,45.6,41.2,84,89,75,0.763,37.7,38.6,37.2,0.044,1.3,323,50,3.5,-0.00002,-0.00002,51.1,48.3,55,0,0,0.0,6.74,0.00,0.00
15min,AgWx,bigpiney,439,04JUN2020:03:45:00,46.9,12.6,42.4,41.9,41.7,42.3,41.1,86,88,84,0.771,37.8,38.5,37.1,1.074,0.9,103,18,2.5,-0.00004,-0.00005,51.1,48.3,55,0,0,0.0,6.74,0.00,0.00
15min,AgWx,bigpiney,439,04JUN2020:04:00:00,46.4,12.59,41.8,41.4,42.0,42.7,41.3,85,88,83,0.781,37.8,38.3,37.3,3.179,2.5,132,12,4.9,0.00001,0.00002,51.0,48.3,55,0,0,0.0,6.74,0.00,0.00
15min,AgWx,bigpiney,439,04JUN2020:04:15:00,46.0,12.58,42.2,42.1,41.9,42.3,41.4,87,88,86,0.793,38.4,38.7,38.1,2.784,3.9,190,13,6.0,0.00002,0.00004,51.0,48.3,55,0,0,0.0,6.74,0.00,0.00
15min,AgWx,bigpiney,439,04JUN2020:04:30:00,45.9,12.57,46.3,44.8,42.8,44.8,42.1,85,88,78,0.790,38.7,38.9,38.3,3.771,3.8,205,11,6.3,0.00003,0.00005,50.9,48.3,55,0,0,0.0,6.74,0.00,0.00
15min,AgWx,bigpiney,439,04JUN2020:04:45:00,46.0,12.56,43.5,42.9,43.5,45.5,42.7,83,87,75,0.812,38.6,39.2,38.0,3.551,3.5,187,12,5.3,0.00004,0.00006,50.9,48.2,55,0,0,0.0,6.74,0.00,0.00
15min,AgWx,bigpiney,439,04JUN2020:05:00:00,46.0,12.55,45.8,45.5,44.4,45.5,42.9,80,86,75,0.775,38.5,39.3,37.9,3.288,3.0,200,16,3.9,0.00004,0.00007,50.8,48.2,55,0,0,0.0,6.74,0.00,0.00
15min,AgWx,bigpiney,439,04JUN2020:05:15:00,46.1,12.54,48.8,49.2,47.4,49.2,45.0,70,76,65,0.780,37.9,38.4,37.7,4.143,4.2,287,35,6.9,0.00014,0.00019,50.7,48.2,55,0,0,0.0,6.74,0.00,0.00
15min,AgWx,bigpiney,439,04JUN2020:05:30:00,46.6,12.52,43.7,43.2,45.3,50.8,42.6,75,84,62,0.788,37.9,38.4,37.4,2.762,2.3,70,51,6.3,0.00005,0.00008,50.7,48.2,55,0,0,0.0,6.74,0.00,0.00
15min,AgWx,bigpiney,439,04JUN2020:05:45:00,46.8,12.51,42.8,42.8,42.8,43.3,42.2,84,85,82,0.787,38.2,38.5,37.8,2.17,1.1,79,44,3.1,-0.00002,-0.00002,50.6,48.2,55,2,0,0.0,6.74,0.00,0.00
15min,AgWx,bigpiney,439,04JUN2020:06:00:00,46.6,12.53,42.1,42.0,42.3,42.9,42.0,86,88,84,0.795,38.5,38.7,38.2,1.798,1.8,350,7.2,3.2,-0.00019,-0.00017,50.5,48.2,55,8,0,0.0,6.74,0.00,0.00
15min,AgWx,bigpiney,439,04JUN2020:06:15:00,46.4,12.52,43.3,43.4,42.5,43.4,42.0,86,88,82,0.787,38.6,38.8,38.3,1.951,1.0,128,84,3.0,-0.00018,-0.00017,50.5,48.1,55,19,0,0.0,6.74,0.00,0.00
15min,AgWx,bigpiney,439,04JUN2020:06:30:00,46.0,12.54,43.7,43.4,42.8,43.4,41.9,84,86,81,0.779,38.2,38.4,37.9,0,1.2,182,23,2.5,0.00010,0.00013,50.4,48.2,55,18,0,0.0,6.74,0.00,0.00
15min,AgWx,bigpiney,439,04JUN2020:06:45:00,45.6,12.54,44.1,43.8,43.4,43.9,42.7,81,84,79,0.775,38.1,38.4,37.9,0,0.4,254,14,1.6,0.00014,0.00016,50.3,48.2,55,33,0,0.0,6.74,0.00,0.00
15min,AgWx,bigpiney,439,04JUN2020:07:00:00,45.4,12.55,44.4,44.2,44.0,44.2,43.8,79,80,78,0.774,38.0,38.2,37.8,1.776,0.5,189,18,1.8,0.00019,0.00022,50.3,48.1,55,29,0,0.0,6.74,0.00,0.00
15min,AgWx,bigpiney,439,04JUN2020:07:15:00,45.3,12.58,44.1,44.4,44.1,44.5,43.5,79,81,77,0.773,37.9,38.1,37.6,1.71,1.0,193,26,2.8,0.00028,0.00034,50.2,48.1,55,44,0,0.0,6.74,0.00,0.00
15min,AgWx,bigpiney,439,04JUN2020:07:30:00,45.7,12.65,48.6,48.5,46.1,48.5,43.9,79,84,74,0.857,40.0,41.5,37.9,0,0.9,265,58,2.5,0.00078,0.00087,50.2,48.1,55,230,0,0.0,6.74,0.00,0.00
15min,AgWx,bigpiney,439,04JUN2020:07:45:00,47.6,12.69,50.0,49.8,49.0,49.8,48.4,72,77,70,0.849,40.3,41.7,39.3,3.968,1.9,59,21,5.5,0.00113,0.00129,50.1,48.1,55,279,0,0.0,6.74,0.00,0.00
15min,AgWx,bigpiney,439,04JUN2020:08:00:00,50.0,12.74,50.2,50.3,50.4,50.9,49.8,70,73,66,0.911,40.9,42.2,39.9,3.814,4.0,69,31,6.7,0.00148,0.00176,50.0,48.1,55,326,0,0.0,6.74,0.00,0.00